Tracking 20376 objects as of 22-Feb-2020
HD Live streaming from Space Station
objects crossing your sky now
Track the group of recently launched Starlink satellites

STARLINK-1074

Track STARLINK-1074 now!
10-day predictions
STARLINK-1074 is classified as:


NORAD ID: 44957
Int'l Code: 2020-001AV
Perigee: 355.6 km
Apogee: 357.8 km
Inclination: 53.0 °
Period: 91.5 minutes
Semi major axis: 6727 km
RCS: Unknown
Launch date: January 7, 2020
Source: United States (US)
Launch site: AIR FORCE EASTERN TEST RANGE (AFETR)
aabbcc
Your satellite tracking list
Your tracking list is empty




NASA's NSSDC Master Catalog

Two Line Element Set (TLE):
1 44957U 20001AV  20053.58334491 -.00011255  00000-0 -75630-4 0  9990
2 44957  52.9959 165.5506 0001675  19.1885 194.7803 15.73265623  7334
Source of the keplerian elements: AFSPC